If you wish to contribute or participate in the discussions about articles you are invited to join SKYbrary as a registered user

 Actions

Angelholm Helsingborg Airport

From SKYbrary Wiki

ESTA
Airport
ICAO: ESTA
Summary
Name Angelholm Helsingborg Airport
Region Europe
Territory Sweden SE.gif
Location Angelholm, Sweden
Serving
Coordinates 56° 17' 27.9996", 12° 51' 18"
Runways
Designator Length Width Surface ROPS
4/22 1997 m6,551.837 ft 40 m131.234 ft ASP /
14/32 1945 m6,381.234 ft 40 m131.234 ft ASP yes/yes


METAR
Observation ESTA 250020Z AUTO 05006KT 9999 FEW082/// M06/M10 Q1037
Station ANGELHOLM (SWE-A
Date/Time 25 February 2018 00:20:00
Wind direction 50°
Wind speed 06 kts
Lowest cloud amount few clouds
Temperature
Dew point
Humidity 73%
QNH 1037 hPa
Weather condition n/a

Angelholm-Helsingborg Airport

ICAO: ESTA IATA: AGH

Description

Airport serving towns of Angelholm and Helsingborg, southwest Sweden.

Climatology

Temperate Marine climate/Oceanic climate (Köppen climate classification Cfb). Moderately cool summer and comparatively warm winter.

Maps

Terrain

Loading map...

Airport Layout

Loading map...


Accidents & Serious Incidents at or in vicinity of ESTA

None on SKYbrary